Zurück zum Katalog

CZ-6A DEB

AktivSSO
NORAD 56256·DEBRIS·🇨🇳 China

Gestartet Nov 11, 2022 von Taiyuan Satellite Launch Center

Loading…

Nächste Überflüge (nächste 24 Stunden)

TLE

AktuellSource: Space-Track

Epoche: Sep 14, 2026, 11:07 UTC

1 56256U 22151ABY 26257.46342775  .00001221  00000-0  24917-3 0  9997
2 56256  98.5655 324.5394 0140621 272.4085  86.1020 14.56949142184966

Verfolge CZ-6A DEB in Echtzeit mit AllMySat

Download on the App Store